Regional Weather Roundup
Issued by NWS Bismarck, ND

Home | Current Version | Previous Version | Text Only | Print | Product List | Glossary On
Versions: 1 2 3 4 5 6 7 8 9 10 11 12 13 14 15 16 17 18 19 20 21 22 23 24 25 26 27 28 29 30 31 32 33 34 35 36 37 38 39 40 41 42 43 44 45 46 47 48 49 50
000
ASUS43 KBIS 032010
RWRBIS

NWR BROADCAST TEXT
NATIONAL WEATHER SERVICE BISMARCK ND
300 PM CDT TUE MAY 03 2016

NOTE: "FAIR" INDICATES FEW OR NO CLOUDS BELOW 12,000 FEET WITH NO
SIGNIFICANT WEATHER AND/OR OBSTRUCTIONS TO VISIBILITY.


CITY           SKY/WX    TMP DP  RH WIND       PRES   REMARKS
WILLISTON      SUNNY     80  38  22 N14       30.03F
MINOT          SUNNY     78  31  17 N16G28    30.00F
MINOT AFB      SUNNY     73  35  24 N16G29    30.00S
BISMARCK       SUNNY     76  38  25 N21G31    29.97S
DICKINSON      SUNNY     74  35  24 NW20G26   30.03S
GARRISON         N/A     75  35  23 N17G32    30.00S
HETTINGER ARPT SUNNY     75  35  23 NW14G22   30.05F
JAMESTOWN      SUNNY     70  26  19 N23G35    29.92R
BEACH          FAIR      73  32  21 N17       30.11S
CARRINGTON     FAIR      70  27  19 N23G29    29.97S
HAZEN          FAIR      75  36  23 N18G25    30.02S
LINTON         FAIR      75  45  33 N23G32    29.96F
MANDAN         FAIR      75  39  27 N22G32    29.99S
OAKES            N/A    N/A N/A N/A MISG        N/A
RUGBY          FAIR      68  25  19 N16G30    29.98R
STANLEY        FAIR      75  36  23 N15G21    30.05S
TIOGA          FAIR      77  36  22 N18G25    30.09R
WATFORD CITY   FAIR      77  37  24 N16       30.04S
$$

CITY           SKY/WX    TMP DP  RH WIND       PRES   REMARKS
GRAND FORKS    SUNNY     67  31  26 N24G53    29.89R
GRAND FORKS AF SUNNY     67  28  23 N26G38    29.90S
DEVILS LAKE    SUNNY     66  27  23 N22G31    29.95S
FARGO          SUNNY     71  27  19 N30G39    29.84S
CANDO          FAIR      68  27  21 N20G30    29.99F
CAVALIER       FAIR      63  30  29 N21G36    29.94R
GRAFTON        FAIR      64  32  29 NW22G37   29.92S
GWINNER        FAIR      73  30  20 NW24G33   29.87R
LANGDON        FAIR      64  32  29 N26       29.96R
ROLLA          FAIR      64  23  20 N20G30    30.00S
WALHALLA       FAIR      63  28  27 N23G35    29.96S
$$

CITY           SKY/WX    TMP DP  RH WIND       PRES   REMARKS
ABERDEEN       SUNNY     77  38  24 NW24G32   29.87F
MOBRIDGE       SUNNY     79  40  24 N18G25    29.93F
BUFFALO          N/A     74  33  22 N14G23    30.02S
RAPID CITY     SUNNY     72  41  32 N21       30.08F
GLASGOW        SUNNY     78  37  22 E5        30.07F
SIDNEY         SUNNY     79  39  24 N14       30.06S
WOLF POINT     SUNNY     80  39  23 N6        30.06F
GLENDIVE       SUNNY     75  34  22 N9        30.10S
MILES CITY     SUNNY     76  37  24 VRB5      30.09F
BAKER          SUNNY     74  32  21 NW8       30.09F
$$

CITY           SKY/WX    TMP DP  RH WIND       PRES   REMARKS
BILLINGS       MOSUNNY   73  34  23 VRB3      30.14F
GREAT FALLS    SUNNY     76  32  20 SW5       30.09F
REGINA         MOSUNNY   79  39  24 N7        30.04S
ESTEVAN        MOSUNNY   79  39  24 N16G25    30.03F
$$




USA.gov is the U.S. government's official web portal to all federal, state and local government web resources and services.